Location: Albrechtsberg
(48.4500°N, 15.3667°E)
Time: 20:09:39
(UTC+00:00)

Daily predictions for brighter satellites

Satellite Brightness Start Highest point End
(mag) Time Altitude Azimuth Time Altitude Azimuth Time Altitude Azimuth
NOSS 2-1 (D) 4.2 15:36:10 10° NW 15:40:59 66° NE 15:47:45 10° SE
Cosmos 1607 4.1 15:34:39 10° SW 15:40:59 83° NW 15:47:29 10° NE
COSMOS 2428 2.9 15:37:57 10° S 15:43:34 58° ESE 15:49:11 10° NE
Cosmos 2084 Rocket 3.9 15:40:40 10° WSW 15:44:43 56° NW 15:48:54 10° NE
CREW DRAGON DEMO-1 DEB 3.4 15:42:42 10° WNW 15:45:34 42° N 15:48:27 10° ENE
Cosmos 405 3.3 15:42:25 10° SSE 15:45:44 43° E 15:49:05 10° NNE
Cosmos 372 Rocket 3.9 15:40:37 10° NNW 15:45:47 77° ENE 15:50:57 10° SSE
SL-08 R/B 4.4 15:41:04 10° N 15:45:47 47° WNW 15:50:26 10° SW
ADEOS Rocket 3.6 15:38:48 10° NNE 15:46:26 73° ESE 15:54:13 10° S
Cosmos 1763 Rocket 4.0 15:41:33 10° SW 15:46:35 62° WNW 15:51:39 10° NNE
H-2A R/B 2.5 15:44:13 10° NNE 15:48:09 40° E 15:52:08 10° S
NOAA 6 4.0 15:43:25 10° SSE 15:48:35 77° ENE 15:53:45 10° NNW
Cosmos 2298 Rocket 4.2 15:43:33 10° NNW 15:48:46 54° ENE 15:53:58 10° SE
Cosmos 1818 3.8 15:43:57 10° NNW 15:49:18 51° NE 15:54:37 10° ESE
Cosmos 2150 Rocket 4.1 15:45:35 10° NNW 15:50:38 51° ENE 15:55:38 10° SE
Cosmos 2184 Rocket 4.1 15:45:12 10° N 15:51:38 71° E 15:57:58 10° SSE
Landsat 5 3.7 15:47:20 10° NNE 15:51:38 59° ESE 15:56:01 10° S
Cosmos 2278 Rocket 2.3 15:46:03 10° NNW 15:51:40 56° ENE 15:57:14 10° SE
USA 215 4.0 15:45:47 10° ENE 15:51:47 38° SE 15:57:47 10° SSW
Cosmos 1862 3.6 15:50:32 10° N 15:54:25 44° ENE 15:58:17 10° SSE
Cosmos 482 Debris 3.8 15:56:22 10° WNW 15:57:57 24° N 15:59:12 13° NE
CZ-4 R/B 3.1 16:02:05 10° E 16:03:50 13° ENE 16:05:36 10° NNE
Cosmos 2360 Rocket 3.4 15:59:37 10° WSW 16:04:52 39° NW 16:10:09 10° NNE
Cosmos 1125 Rocket 3.6 16:03:29 10° NNW 16:08:35 51° ENE 16:13:38 10° SE
Cosmos 2208 Rocket 4.0 16:03:44 10° SSW 16:08:59 83° ESE 16:14:22 10° NNE
Cosmos 2219 Rocket 2.4 16:07:56 10° SSW 16:13:36 77° WNW 16:19:17 10° NNE
Cosmos 1900 4.4 16:10:30 10° SSW 16:15:34 70° ESE 16:20:36 11° NE
Cosmos 2221 2.6 16:11:25 10° S 16:15:46 85° W 16:20:08 10° N
CZ-4B R/B 3.1 16:10:49 10° SSE 16:16:12 86° ENE 16:21:32 10° NNW
Cosmos 1500 Rocket 3.5 16:11:52 10° N 16:16:16 89° E 16:20:41 10° S
Cosmos 1356 4.4 16:14:30 10° NNE 16:17:26 25° ENE 16:20:20 10° SE
Abrixas rocket 2.9 16:15:02 10° W 16:17:41 42° SSW 16:20:20 10° SE
Cosmos 1939 Rocket 3.6 16:14:43 10° SE 16:18:04 29° ENE 16:21:29 10° N
CSL-04 DEB 4.5 16:14:36 10° NNE 16:18:38 60° ESE 16:22:44 10° S
FengYun 1-2 T 4.2 16:13:54 10° SSE 16:19:22 63° ENE 16:24:50 10° N
ERS-2 3.0 16:16:17 11° NE 16:19:22 29° E 16:22:35 10° SSE
SL-16 R/B 4.3 16:15:32 10° W 16:19:33 19° NW 16:23:35 10° N
NOAA 12 4.1 16:14:48 10° SSE 16:20:08 85° ENE 16:25:30 10° NNW
SL-24 R/B - RUBIN 2 4.3 16:14:17 10° NW 16:20:45 78° NE 16:26:28 10° SE
Cosmos 2237 Rocket 2.5 16:16:13 10° S 16:21:33 46° ESE 16:26:47 11° NE
NOAA 11 4.1 16:18:52 10° SSE 16:24:13 64° ENE 16:29:36 10° N
ISS -2.7 16:21:18 10° SSW 16:24:19 32° SE 16:26:06 19° E
USA 267 3.3 16:19:28 10° ESE 16:25:55 68° NNE 16:32:24 10° NW
GENESIS II 4.2 16:24:40 10° NW 16:28:37 62° NE 16:32:29 10° SE
YAOGAN 1 3.8 16:26:41 15° E 16:28:43 21° ENE 16:31:58 10° NNE
CZ-4B R/B 1.7 16:26:56 17° NE 16:28:55 37° E 16:31:48 10° S
Cosmos 540 Rocket 4.3 16:25:08 10° SW 16:30:07 50° WNW 16:35:07 10° NNE
Cosmos 2218 Rocket 4.5 16:25:18 10° N 16:30:54 35° ENE 16:36:27 10° SE
Cosmos 2369 Rocket 3.6 16:29:29 10° N 16:33:30 19° NE 16:34:50 18° ENE
Okean-O 3.5 16:30:10 10° ESE 16:33:54 27° ENE 16:37:39 10° N
AQUARIUS 4.4 16:30:00 10° S 16:34:28 76° WSW 16:39:00 10° NNW
CRYOSAT 2 4.3 16:31:26 10° N 16:36:21 84° E 16:41:14 10° S
COSMO-SKYMED 1 3.2 16:33:45 14° NE 16:37:06 34° E 16:41:03 10° SSE
Cosmos 1743 Rocket 4.4 16:33:47 10° NNW 16:38:10 54° W 16:42:30 10° S
CORIOLIS 4.4 16:33:23 10° S 16:38:47 77° WSW 16:44:15 10° NNW
Cosmos 1980 3.7 16:33:46 10° SSW 16:39:23 66° ESE 16:44:33 12° NNE
Envisat 4.4 16:35:00 10° SSW 16:39:46 41° W 16:44:35 10° NNW
H-2A R/B 4.4 16:38:42 10° SSW 16:42:40 33° W 16:46:32 10° NNW
Cosmos 2366 rocket 4.3 16:37:42 10° N 16:43:34 41° ENE 16:49:21 10° SE
H-2A R/B 2.9 16:42:58 17° ESE 16:45:55 28° ENE 16:50:16 10° N
Okean O Rocket 2.4 16:42:43 10° S 16:46:59 54° W 16:51:17 10° NNW
Nadezhda 1 Rocket 4.2 16:41:32 10° SSW 16:47:51 78° W 16:54:18 10° N
Sich 1 2.9 16:45:43 10° N 16:50:09 79° E 16:54:31 10° SSE
Cosmos 405 Rocket 4.4 16:50:50 10° NNW 16:54:25 36° W 16:58:03 10° SSW
Cosmos 1933 3.7 16:50:51 10° SSE 16:54:37 39° E 16:55:34 34° ENE
PSLV R/B 4.5 16:54:29 34° E 16:54:54 35° E 16:58:36 10° SSE
Cosmos 2297 3.8 16:52:02 10° NNW 16:57:37 52° ENE 17:02:18 14° SE
Cosmos 1805 Rocket 4.0 16:54:04 10° NNW 16:58:30 65° W 17:02:54 10° S
Cosmos 1666 Rocket 3.4 17:00:11 10° N 17:04:35 72° E 17:08:59 10° SSE
Cosmos 2341 Rocket 4.0 16:58:46 10° N 17:05:04 89° E 17:11:24 10° S
Helios 1A Rocket 2.9 17:03:21 15° SE 17:06:28 51° ENE 17:10:24 10° N
USA 281 3.1 17:00:12 10° SE 17:06:44 75° ENE 17:13:19 10° NNW
Cosmos 1943 Rocket 2.6 17:01:35 10° NNW 17:06:46 38° NE 17:07:55 35° E
SL-16 R/B 2.6 17:03:25 10° S 17:08:39 40° ESE 17:09:55 35° ENE
Cosmos 1151 Rocket 3.2 17:05:26 10° SSE 17:09:33 47° E 17:09:51 46° E
SL-24 DEB 4.5 17:05:15 10° NNE 17:09:53 47° E 17:14:27 10° SSE
Cosmos 1328 Rocket 3.9 17:08:11 10° SSE 17:11:48 42° ESE 17:11:48 42° ESE
ARGOS 3.7 17:15:45 35° NE 17:15:45 35° NE 17:20:10 10° N
MOS 1 Rocket 3.9 17:14:13 36° ENE 17:15:38 43° E 17:20:48 10° SSE
NOSS 0 Rocket 4.4 17:13:21 10° SW 17:19:31 61° NW 17:24:41 15° NNE
NOAA 15 4.5 17:14:34 10° SSE 17:19:49 66° ENE 17:25:04 10° N
Cosmos 1606 3.2 17:16:12 10° SSW 17:20:03 60° WNW 17:23:04 16° N
Cosmos 389 Rocket 2.8 17:16:45 10° SSW 17:20:09 62° WNW 17:21:15 38° NNW
CZ-2C R/B 2.8 17:15:32 10° SSE 17:20:40 70° ENE 17:25:36 10° N
Cosmos 2285 Rocket 3.9 17:14:26 10° NNW 17:20:53 71° ENE 17:27:13 10° SSE
CREW DRAGON DEMO-1 DEB 3.7 17:18:14 10° WNW 17:20:29 46° WNW 17:20:29 46° WNW
Cosmos 2333 Rocket 4.0 17:18:17 10° WSW 17:23:03 27° NW 17:27:50 10° NNE
H-2A R/B 4.3 17:20:40 10° NNW 17:23:55 23° WNW 17:27:13 10° WSW
SKYMED 2 3.6 17:22:23 21° N 17:25:18 81° WNW 17:29:39 10° SSW
Meteor 1-20 Rocket 4.3 17:20:28 10° NNW 17:26:22 88° WSW 17:32:13 10° S
Cosmos 1867 3.5 17:21:06 10° SSW 17:26:27 62° ESE 17:27:32 50° ENE
COSMOS 2428 4.3 17:23:11 10° WSW 17:28:12 30° NW 17:33:12 10° NNE
SL-8 Rocket 4.1 17:26:46 10° NNW 17:32:59 76° W 17:39:13 10° S
Cosmos 864 Rocket 4.4 17:27:08 10° N 17:33:30 87° E 17:39:47 10° S
USA 215 3.2 17:32:16 36° NE 17:35:12 81° NNW 17:41:45 10° WSW
Cosmos 2278 Rocket 4.3 17:30:43 10° NW 17:35:24 27° WSW 17:40:04 10° SSW
Lacrosse 5 rocket 3.5 17:32:38 10° S 17:33:15 13° S 17:33:15 13° S
Cosmos 1633 Rocket 3.3 17:31:52 10° NNW 17:36:14 66° W 17:40:32 10° S
EO 1 Delta rocket 4.2 17:32:40 10° N 17:37:48 90° SSE 17:44:09 10° SSW
Cosmos 2181 Rocket 4.1 17:31:32 10° S 17:37:59 84° W 17:44:26 10° N
CZ-4 R/B 1.4 17:37:52 66° SSW 17:38:17 75° WSW 17:42:17 10° NNW
SAR-Lupe-4 4.4 17:40:58 47° NW 17:41:16 49° WNW 17:44:44 10° SW
Meteor 1-25 Rocket 4.5 17:37:01 10° NNW 17:42:36 69° W 17:48:12 10° S
CZ-2D R/B 4.5 17:42:24 10° S 17:46:00 41° W 17:49:40 10° NNW
Cosmos 1821 Rocket 4.3 17:40:24 10° N 17:45:18 47° NE 17:45:18 47° NE
Cosmos 1241 Rocket 4.4 17:43:18 10° NW 17:49:57 84° NE 17:51:53 50° SE
ERS-2 4.3 17:50:53 16° NNW 17:52:49 24° WNW 17:55:49 10° WSW
CSL-04 Debris 4.1 17:51:53 45° SSE 17:53:41 87° ENE 17:59:13 10° NNW
Cosmos 44 3.5 17:49:38 10° NW 17:54:56 81° SW 17:55:25 72° S
DEBRIS 3.6 17:43:39 10° W 17:56:03 88° NNE 17:56:23 79° E
Cosmos 2219 Rocket 4.4 17:54:38 10° W 17:58:32 19° NW 18:02:22 10° N
SL-08 R/B 4.3 17:52:25 10° N 17:58:38 88° E 18:04:46 10° S
CZ-4B R/B 4.3 18:00:04 12° NW 18:00:52 13° WNW 18:02:26 10° W
ISS -1.3 17:57:39 10° W 17:59:04 23° W 17:59:04 23° W
YAOGAN 1 3.4 18:03:52 44° SW 18:04:31 49° W 18:08:45 10° NNW
Cosmos 2237 Rocket 3.5 18:00:37 10° WSW 18:05:45 35° NW 18:08:38 22° N
USA 267 3.9 18:05:49 28° SSE 18:09:07 50° SW 18:15:26 10° WNW
Okean-O 4.0 18:06:09 10° SSW 18:10:15 37° W 18:14:23 10° NNW
COSMO-SKYMED 1 4.4 18:10:59 19° NNW 18:13:10 28° WNW 18:16:53 10° SW
Cosmos 2369 Rocket 2.9 18:12:46 10° NNW 18:16:38 44° NNW 18:16:38 44° NNW
CSL-04 Rocket 3.9 18:18:44 64° WSW 18:18:49 64° WSW 18:24:08 10° NNW
H-2A R/B 2.8 18:23:35 39° SW 18:25:06 50° W 18:30:12 10° NNW
Cosmos 1943 Rocket 3.5 18:45:23 10° NW 18:49:30 37° W 18:49:30 37° W
SL-16 R/B 3.5 18:47:29 10° WSW 18:51:51 37° WNW 18:51:51 37° WNW
USA 215 4.4 19:19:37 38° NW 19:19:37 38° NW 19:23:59 10° W
